• In Germany
  • List of Countries
  • For 7 days
  • Water Temperature
  • Satellite Maps
  • Weather Map
  • Weather Widgets
  • user-avatar
    Login

    Hourly Weather Pamporovo

    Today, 25 September, Monday

    Time Temperature Precipitation Wind Pressure Humidity
    00:00 +9°C° 0 mm 1 mps 628 mmHg 67%
    01:00 +8°C° 0 mm 1 mps 628 mmHg 67%
    02:00 +8°C° 0 mm 1 mps 628 mmHg 67%
    03:00 +8°C° 0 mm 1 mps 628 mmHg 67%
    04:00 +8°C° 0 mm 1 mps 628 mmHg 67%
    05:00 +8°C° 0 mm 1 mps 628 mmHg 66%
    06:00 +8°C° 0 mm 1 mps 628 mmHg 65%
    07:00 +9°C° 0 mm 1 mps 628 mmHg 63%
    08:00 +10°C° 0 mm 1 mps 628 mmHg 61%
    09:00 +10°C° 0 mm 2 mps 629 mmHg 56%
    10:00 +11°C° 0 mm 3 mps 629 mmHg 51%
    11:00 +13°C° 0 mm 3 mps 630 mmHg 46%
    12:00 +13°C° 0 mm 4 mps 630 mmHg 44%
    13:00 +14°C° 0 mm 4 mps 630 mmHg 42%
    14:00 +14°C° 0 mm 4 mps 630 mmHg 40%
    15:00 +14°C° 0 mm 4 mps 630 mmHg 45%
    16:00 +13°C° 0 mm 3 mps 629 mmHg 49%
    17:00 +12°C° 0 mm 3 mps 629 mmHg 53%
    18:00 +11°C° 0.1 mm 3 mps 628 mmHg 61%
    19:00 +9°C° 0.1 mm 2 mps 628 mmHg 69%
    20:00 +8°C° 0.1 mm 2 mps 628 mmHg 77%
    21:00 +8°C° 0.5 mm 2 mps 628 mmHg 81%
    22:00 +7°C° 0.5 mm 2 mps 627 mmHg 85%
    23:00 +7°C° 0.5 mm 2 mps 627 mmHg 88%

    Tomorrow, 26 September, Tuesday

    Time Temperature Precipitation Wind Pressure Humidity
    00:00 +7°C° 1.4 mm 2 mps 627 mmHg 89%
    01:00 +7°C° 1.4 mm 2 mps 627 mmHg 90%
    02:00 +7°C° 1.4 mm 2 mps 627 mmHg 91%
    03:00 +7°C° 2.8 mm 2 mps 627 mmHg 91%
    04:00 +7°C° 2.8 mm 2 mps 626 mmHg 91%
    05:00 +6°C° 2.8 mm 2 mps 626 mmHg 91%
    06:00 +6°C° 1.7 mm 2 mps 626 mmHg 90%
    07:00 +6°C° 1.7 mm 2 mps 627 mmHg 90%
    08:00 +6°C° 1.7 mm 2 mps 627 mmHg 89%
    09:00 +7°C° 1 mm 2 mps 627 mmHg 87%
    10:00 +7°C° 1 mm 2 mps 627 mmHg 85%
    11:00 +8°C° 1 mm 2 mps 627 mmHg 83%
    12:00 +8°C° 1.2 mm 2 mps 627 mmHg 82%
    13:00 +8°C° 1.2 mm 2 mps 627 mmHg 82%
    14:00 +8°C° 1.2 mm 2 mps 627 mmHg 81%
    15:00 +8°C° 1.1 mm 2 mps 627 mmHg 81%
    16:00 +8°C° 1.1 mm 2 mps 627 mmHg 81%
    17:00 +8°C° 1.1 mm 2 mps 627 mmHg 82%
    18:00 +7°C° 0.5 mm 2 mps 627 mmHg 84%
    19:00 +6°C° 0.5 mm 2 mps 627 mmHg 86%
    20:00 +6°C° 0.5 mm 2 mps 627 mmHg 89%
    21:00 +6°C° 0.1 mm 2 mps 627 mmHg 89%
    22:00 +6°C° 0.1 mm 2 mps 627 mmHg 89%
    23:00 +6°C° 0.1 mm 2 mps 628 mmHg 89%

    Day after tomorrow, 27 September, Wednesday

    Time Temperature Precipitation Wind Pressure Humidity
    00:00 +7°C° 0.1 mm 1 mps 628 mmHg 89%
    01:00 +7°C° 0.1 mm 1 mps 628 mmHg 90%
    02:00 +7°C° 0.1 mm 1 mps 628 mmHg 90%
    03:00 +7°C° 0 mm 1 mps 628 mmHg 91%
    04:00 +7°C° 0 mm 1 mps 628 mmHg 91%
    05:00 +7°C° 0 mm 1 mps 628 mmHg 91%
    06:00 +8°C° 0 mm 1 mps 629 mmHg 90%
    07:00 +8°C° 0 mm 1 mps 629 mmHg 89%
    08:00 +9°C° 0 mm 1 mps 629 mmHg 87%
    09:00 +9°C° 0.2 mm 1 mps 630 mmHg 84%
    10:00 +10°C° 0.2 mm 1 mps 631 mmHg 82%
    11:00 +10°C° 0.2 mm 2 mps 631 mmHg 79%
    12:00 +10°C° 0.4 mm 2 mps 631 mmHg 78%
    13:00 +10°C° 0.4 mm 2 mps 631 mmHg 78%
    14:00 +10°C° 0.4 mm 3 mps 631 mmHg 77%
    15:00 +10°C° 0.4 mm 3 mps 631 mmHg 79%
    16:00 +9°C° 0.4 mm 3 mps 631 mmHg 81%
    17:00 +9°C° 0.4 mm 3 mps 631 mmHg 82%
    18:00 +8°C° 0.3 mm 3 mps 631 mmHg 84%
    19:00 +7°C° 0.3 mm 3 mps 631 mmHg 86%
    20:00 +7°C° 0.3 mm 3 mps 631 mmHg 88%
    21:00 +6°C° 0.1 mm 2 mps 631 mmHg 88%
    22:00 +6°C° 0.1 mm 2 mps 631 mmHg 89%
    23:00 +6°C° 0.1 mm 2 mps 631 mmHg 90%

    28 September, Thursday

    Time Temperature Precipitation Wind Pressure Humidity
    00:00 +5°C° 0 mm 2 mps 631 mmHg 90%
    01:00 +5°C° 0 mm 2 mps 630 mmHg 90%
    02:00 +5°C° 0 mm 2 mps 630 mmHg 90%
    03:00 +4°C° 0 mm 2 mps 630 mmHg 90%
    04:00 +4°C° 0 mm 2 mps 630 mmHg 90%
    05:00 +4°C° 0 mm 2 mps 630 mmHg 90%
    06:00 +4°C° 0 mm 2 mps 630 mmHg 88%
    07:00 +5°C° 0 mm 2 mps 630 mmHg 85%
    08:00 +4°C° 0 mm 3 mps 631 mmHg 82%
    09:00 +5°C° 0 mm 3 mps 631 mmHg 76%
    10:00 +7°C° 0 mm 3 mps 632 mmHg 71%
    11:00 +8°C° 0 mm 3 mps 632 mmHg 65%
    12:00 +8°C° 0 mm 4 mps 632 mmHg 62%
    13:00 +8°C° 0 mm 4 mps 632 mmHg 58%
    14:00 +8°C° 0 mm 4 mps 632 mmHg 55%
    15:00 +8°C° 0 mm 4 mps 631 mmHg 58%
    16:00 +7°C° 0 mm 4 mps 631 mmHg 61%
    17:00 +7°C° 0 mm 4 mps 631 mmHg 64%
    18:00 +7°C° 0 mm 3 mps 631 mmHg 69%
    19:00 +5°C° 0 mm 3 mps 630 mmHg 74%
    20:00 +4°C° 0 mm 3 mps 630 mmHg 79%
    21:00 +3°C° 0 mm 3 mps 630 mmHg 80%
    22:00 +3°C° 0 mm 3 mps 630 mmHg 82%
    23:00 +4°C° 0 mm 2 mps 630 mmHg 83%

    29 September, Friday

    Time Temperature Precipitation Wind Pressure Humidity
    00:00 +3°C° 0 mm 2 mps 630 mmHg 84%
    01:00 +3°C° 0 mm 2 mps 629 mmHg 86%
    02:00 +2°C° 0 mm 2 mps 629 mmHg 87%
    03:00 +2°C° 0 mm 2 mps 629 mmHg 87%
    04:00 +2°C° 0 mm 2 mps 629 mmHg 87%
    05:00 +2°C° 0 mm 2 mps 628 mmHg 87%
    06:00 +2°C° 0 mm 2 mps 629 mmHg 83%
    07:00 +2°C° 0 mm 3 mps 629 mmHg 79%
    08:00 +3°C° 0 mm 3 mps 629 mmHg 75%
    09:00 +4°C° 0 mm 3 mps 630 mmHg 69%
    10:00 +5°C° 0 mm 3 mps 630 mmHg 62%
    11:00 +6°C° 0 mm 4 mps 630 mmHg 55%
    12:00 +7°C° 0 mm 4 mps 630 mmHg 53%
    13:00 +7°C° 0 mm 4 mps 630 mmHg 50%
    14:00 +8°C° 0 mm 4 mps 630 mmHg 48%
    15:00 +8°C° 0 mm 3 mps 629 mmHg 51%
    16:00 +8°C° 0 mm 3 mps 629 mmHg 53%
    17:00 +7°C° 0 mm 3 mps 629 mmHg 56%
    18:00 +4°C° 0 mm 3 mps 628 mmHg 62%
    19:00 +4°C° 0 mm 2 mps 628 mmHg 68%
    20:00 +3°C° 0 mm 2 mps 628 mmHg 74%
    21:00 +2°C° 0 mm 2 mps 627 mmHg 76%
    22:00 +2°C° 0 mm 2 mps 627 mmHg 77%
    23:00 +1°C° 0 mm 2 mps 627 mmHg 79%

    30 September, Saturday

    Time Temperature Precipitation Wind Pressure Humidity
    00:00 +1°C° 0 mm 2 mps 627 mmHg 80%
    01:00 +1°C° 0 mm 2 mps 627 mmHg 81%
    02:00 -1°C° 0 mm 2 mps 626 mmHg 83%
    03:00 -1°C° 0 mm 2 mps 626 mmHg 83%
    04:00 -1°C° 0 mm 2 mps 626 mmHg 84%
    05:00 -2°C° 0 mm 2 mps 626 mmHg 84%
    06:00 -1°C° 0 mm 2 mps 626 mmHg 78%
    07:00 +2°C° 0 mm 2 mps 626 mmHg 73%
    08:00 +3°C° 0 mm 2 mps 627 mmHg 67%
    09:00 +4°C° 0 mm 2 mps 627 mmHg 58%
    10:00 +6°C° 0 mm 2 mps 628 mmHg 50%
    11:00 +8°C° 0 mm 2 mps 628 mmHg 42%
    12:00 +9°C° 0 mm 2 mps 628 mmHg 40%
    13:00 +9°C° 0 mm 2 mps 628 mmHg 38%
    14:00 +10°C° 0 mm 2 mps 628 mmHg 36%
    15:00 +9°C° 0 mm 2 mps 627 mmHg 38%
    16:00 +8°C° 0 mm 2 mps 627 mmHg 41%
    17:00 +7°C° 0 mm 2 mps 627 mmHg 44%
    18:00 +6°C° 0 mm 2 mps 626 mmHg 47%
    19:00 +6°C° 0 mm 1 mps 626 mmHg 51%
    20:00 +4°C° 0 mm 1 mps 626 mmHg 54%
    21:00 +4°C° 0 mm 1 mps 626 mmHg 55%
    22:00 +4°C° 0 mm 1 mps 626 mmHg 55%
    23:00 +3°C° 0 mm 1 mps 626 mmHg 56%
    Show more